COSMOS 1574

Satellite information

Favourite Embed

Satellite Type and Status

PAYLOADIN ORBIT

Key statistics

Satellite COSMOS 1574 at a glance.

Uptime

14935

Days in orbit

Revolutions

≈ 13.7

Per day

Orbit

LEO

Low Earth Orbit

Inclination

83.0

Latest

Satellite identification and parameters

Extended collection of information and parameters for COSMOS 1574.

Object identification

Identified? True

Debris? False

Object name: COSMOS 1574

International designator: 1984-062A

Object number (NORAD): 15055

Object ID (CCSDS): 15055

Country: COMMONWEALTH OF INDEPENDENT STATES (CIS)

Current information (Y/N): Y

RCS size: LARGE

Orbital parameters

Period: 104.764 minutes

Inclination: 82.96 deg

SMA: 7361.542 km

Apoapsis: 1004.527 km

Periapsis: 962.286 km

RAAN: 14.612 deg

Eccentricy: 0.002869

Argument of periapsis: 90.1389 deg

Mean anomaly: 281.1565 deg

Mean motion: 13.74515389 rev/day

Mean motion (dot): 0.00000075 rev/day2

B* drag term: 0.000062569 1/REarth

Two-line elements (TLE)

Creation date: May 12, 2025, 2:31 a.m.

Reference frame: TEME

Reference center: EARTH

Epoch: May 11, 2025, 9:51 p.m. UTC

TLE line 0: 0 COSMOS 1574

TLE line 1: 1 15055U 84062A 25131.91078998 .00000075 00000-0 62569-4 0 9993

TLE line 2: 2 15055 82.9600 14.6120 0028690 90.1389 281.1565 13.74515389 50438

Live tracking on map

Real-time ground track for satellite COSMOS 1574.

In-orbit conjunctions

A list of the most updated potential collisions computed for object COSMOS 1574.

Target Orbit TCA Probability of collision Miss distance Type
COSMOS 249 DEB * LEO 2025-01-31 17:35:09 0.0001677722 878.0 (m) DEBRIS
CZ-6A DEB SSO 2024-06-06 22:01:41 0.0001455021 129.0 (m) DEBRIS

Associated space launch

Civilian navigation satellite equivalent to the purely military Parus

COSMOS 1574 was lifted into orbit during the mission ‘Kosmos-3M | Nadezhda 3’, on board a Kosmos-3M space rocket.

The launch took place on June 21, 1984, 7:40 p.m. from 132/2.

For more information about the launch, click the button.

Launch to space Kosmos-3M | Nadezhda 3
Kosmos-3M | Nadezhda 3

Agency: N/A

Status: Launch Successful

Launch date: June 21, 1984, 7:40 p.m. UTC

Rocket: Kosmos-3M

Launch pad: 132/2

Location: Plesetsk Cosmodrome, Russian Federation

...

Latest news about this satellite

There are no fresh news available about this satellite. Check back as we update our databases every day.


Newsletter sign-up

Weekly statistics, charts and insights to help you stay on top of the space industry.